Weather History for Alicante, Spain

Change the Weather History Date:

Tuesday, October 1, 2013

  Actual Average Record
Temperature  
Mean Temperature 81 °F -  
Max Temperature 91 °F 75 °F 91 °F (2013)
Min Temperature 71 °F 58 °F 55 °F (1998)
Cooling Degree Days 16    
Growing Degree Days 31 (Base 50)    
Moisture  
Dew Point 66 °F    
Average Humidity 61    
Maximum Humidity 83    
Minimum Humidity 31    
Precipitation  
Precipitation 0.00 in - - ()
Sea Level Pressure  
Sea Level Pressure 29.83 in    
Wind  
Wind Speed 6 mph ()    
Max Wind Speed 13 mph    
Max Gust Speed 20 mph    
Visibility 6.5 miles    
Events      
Averages and records for this station are not official NWS values.
T = Trace of Precipitation, MM = Missing Value Source: Averaged Metar Reports

Daily Weather History Graph

Daily Weather History Graph

Search for Another Location

Airport:

Trip Planner

Search our weather history database for the weather conditions in past years. The results will help you decide how hot, cold, wet, or windy it might be!

Date:

Astronomy

Oct. 01, 2013 Rise Set
Actual Time 7:57 AM CEST 7:45 PM CEST
Civil Twilight 7:31 AM CEST 8:11 PM CEST
Nautical Twilight 7:00 AM CEST 8:42 PM CEST
Astronomical Twilight 6:30 AM CEST 9:12 PM CEST
Moon 4:20 AM CEST (10/1) 5:38 PM CEST (10/1)
Length of Visible Light 12h 39m
Length of Day
11h 47m
Waning Crescent, 14% of the Moon is Illuminated
Oct 1
Waning Crescent
Oct 5
New
Oct 12
First Quarter
Oct 19
Full
Oct 27
Last Quarter

Hourly Weather History & Observations

Time (CEST) Temp. Heat Index Dew Point Humidity Pressure Visibility Wind Dir Wind Speed Gust Speed Precip Events Conditions
12:00 AM 82.4 °F 83.9 °F 64.4 °F 54% 29.83 in 6.2 mi West 9.2 mph - N/A   Partly Cloudy
12:30 AM 82.4 °F 83.9 °F 64.4 °F 54% 29.83 in 6.2 mi West 12.7 mph - N/A   Partly Cloudy
1:00 AM 80.6 °F 82.7 °F 66.2 °F 61% 29.83 in 6.2 mi WNW 12.7 mph - N/A   Partly Cloudy
1:30 AM 78.8 °F - 66.2 °F 65% 29.83 in 6.2 mi WNW 8.1 mph - N/A   Partly Cloudy
2:00 AM 78 °F - 65 °F 55% 29.82 in 16 mi West 9.2 mph - -   Scattered Clouds
2:00 AM 78.8 °F - 66.2 °F 65% 29.80 in - WNW 9.2 mph - N/A   Clear
2:30 AM 77.0 °F - 66.2 °F 69% 29.80 in - West 6.9 mph - N/A   Clear
3:00 AM 75.2 °F - 66.2 °F 73% 29.80 in - West 3.5 mph - N/A   Clear
3:30 AM 77.0 °F - 64.4 °F 65% 29.80 in - West 8.1 mph - N/A   Clear
4:00 AM 75.2 °F - 64.4 °F 69% 29.80 in - Variable 2.3 mph - N/A   Clear
4:30 AM 73.4 °F - 66.2 °F 78% 29.80 in - Variable 2.3 mph - N/A   Clear
5:00 AM 73.4 °F - 66.2 °F 78% 29.80 in - Variable 2.3 mph - N/A   Clear
5:30 AM 73.4 °F - 66.2 °F 78% 29.80 in - Calm Calm - N/A   Clear
6:00 AM 73.4 °F - 66.2 °F 78% 29.80 in - Variable 1.2 mph - N/A   Clear
6:30 AM 71.6 °F - 66.2 °F 83% 29.83 in - Calm Calm - N/A   Clear
7:00 AM 71.6 °F - 64.4 °F 78% 29.83 in - Variable 2.3 mph - N/A   Clear
7:30 AM 71.6 °F - 66.2 °F 83% 29.83 in - West 3.5 mph - N/A   Clear
8:00 AM 77 °F - 63 °F 52% 29.83 in 25 mi WNW 8.1 mph - -   Scattered Clouds
8:00 AM 77.0 °F - 64.4 °F 65% 29.83 in - WNW 6.9 mph - N/A   Clear
8:30 AM 77.0 °F - 64.4 °F 65% 29.83 in - WNW 3.5 mph - N/A   Clear
9:00 AM 78.8 °F - 64.4 °F 61% 29.86 in 6.2 mi West 8.1 mph - N/A   Partly Cloudy
9:30 AM 80.6 °F 82.3 °F 64.4 °F 58% 29.86 in 6.2 mi WNW 10.4 mph - N/A   Partly Cloudy
10:00 AM 82.4 °F 83.9 °F 64.4 °F 54% 29.86 in 6.2 mi WNW 9.2 mph - N/A   Partly Cloudy
10:30 AM 84.2 °F 85.6 °F 64.4 °F 51% 29.86 in 6.2 mi NW 5.8 mph 19.6 mph N/A   Partly Cloudy
11:00 AM 84.2 °F 85.6 °F 64.4 °F 51% 29.86 in 6.2 mi WNW 3.5 mph - N/A   Partly Cloudy
11:30 AM 86.0 °F 87.3 °F 64.4 °F 48% 29.86 in 6.2 mi Variable 3.5 mph - N/A   Partly Cloudy
12:00 PM 86.0 °F 87.3 °F 64.4 °F 48% 29.86 in 6.2 mi Variable 4.6 mph - N/A   Partly Cloudy
12:30 PM 87.8 °F 88.5 °F 62.6 °F 43% 29.86 in 6.2 mi SW 6.9 mph - N/A   Partly Cloudy
1:00 PM 89.6 °F 91.1 °F 64.4 °F 43% 29.86 in 6.2 mi South 9.2 mph - N/A   Partly Cloudy
1:30 PM 89.6 °F 91.1 °F 64.4 °F 43% 29.86 in 6.2 mi South 10.4 mph - N/A   Partly Cloudy
2:00 PM 89 °F - 63 °F 31% 29.84 in 28 mi South 11.5 mph - -   Scattered Clouds
2:00 PM 87.8 °F 89.4 °F 64.4 °F 46% 29.83 in 6.2 mi South 10.4 mph - N/A   Partly Cloudy
2:30 PM 87.8 °F 90.4 °F 66.2 °F 49% 29.83 in 6.2 mi South 11.5 mph - N/A   Partly Cloudy
3:00 PM 86.0 °F 86.6 °F 62.6 °F 45% 29.83 in 6.2 mi South 11.5 mph - N/A   Partly Cloudy
3:30 PM 86.0 °F 86.6 °F 62.6 °F 45% 29.83 in 6.2 mi South 11.5 mph - N/A   Partly Cloudy
4:00 PM 87.8 °F 89.4 °F 64.4 °F 46% 29.80 in 6.2 mi South 12.7 mph - N/A   Partly Cloudy
4:30 PM 87.8 °F 89.4 °F 64.4 °F 46% 29.80 in 6.2 mi South 12.7 mph - N/A   Partly Cloudy
5:00 PM 87.8 °F 89.4 °F 64.4 °F 46% 29.80 in 6.2 mi South 12.7 mph - N/A   Partly Cloudy
5:30 PM 86.0 °F 88.2 °F 66.2 °F 51% 29.80 in 6.2 mi South 12.7 mph - N/A   Partly Cloudy
6:00 PM 86.0 °F 88.2 °F 66.2 °F 51% 29.80 in 6.2 mi South 12.7 mph - N/A   Partly Cloudy
6:30 PM 84.2 °F 87.3 °F 68.0 °F 58% 29.80 in 6.2 mi South 8.1 mph - N/A   Partly Cloudy
7:00 PM 84.2 °F 87.3 °F 68.0 °F 58% 29.83 in 6.2 mi South 5.8 mph - N/A   Partly Cloudy
7:30 PM 82.4 °F 85.4 °F 68.0 °F 62% 29.83 in - South 3.5 mph - N/A   Clear
8:00 PM 81 °F - 68 °F 55% 29.83 in 25 mi SSW 3.5 mph - -   Scattered Clouds
8:00 PM 80.6 °F 83.9 °F 69.8 °F 70% 29.83 in - Variable 2.3 mph - N/A   Clear
8:30 PM 78.8 °F - 69.8 °F 74% 29.83 in 6.2 mi Variable 1.2 mph - N/A   Partly Cloudy
9:00 PM 77.0 °F - 71.6 °F 83% 29.83 in 6.2 mi Calm Calm - N/A   Partly Cloudy
9:30 PM 78.8 °F - 71.6 °F 78% 29.86 in 6.2 mi Variable 1.2 mph - N/A   Partly Cloudy
10:00 PM 77.0 °F - 71.6 °F 83% 29.86 in 6.2 mi Variable 1.2 mph - N/A   Partly Cloudy
10:30 PM 77.0 °F - 71.6 °F 83% 29.86 in 6.2 mi Variable 1.2 mph - N/A   Partly Cloudy
11:00 PM 77.0 °F - 71.6 °F 83% 29.86 in 6.2 mi Calm Calm - N/A   Partly Cloudy
11:30 PM 78.8 °F - 69.8 °F 74% 29.86 in 6.2 mi Variable 1.2 mph - N/A   Partly Cloudy